Theta_e
354 354 354 354 355 354 356 357 357 356 355 355 355 355 355 358 356 356 357 356 358 357 358 359 358 357 356 358 356 357 358 359 359 360 359 359 359 359 360 360 360 360 361 361 361 361 361 360 360 361 360 360 360 358 358 358 358 358 358 356 356 357 354 351 349 350 354 353 353 357 358 355 350 352 353 354 356 358 355 357 358 356 357 360 361
353 354 355 354 354 355 356 357 358 357 355 355 356 355 355 356 357 357 356 357 358 357 358 358 359 358 357 357 358 357 358 359 358 358 358 358 358 358 359 359 359 360 359 359 360 360 361 360 361 361 361 359 359 357 358 357 356 357 356 356 355 357 357 354 352 352 349 352 354 354 351 352 350 353 353 352 354 358 355 355 355 357 358 362 363
353 354 354 354 354 356 357 357 357 357 355 355 355 355 355 356 357 356 356 357 358 358 358 358 359 359 359 359 358 357 359 358 358 358 358 358 357 358 359 360 359 359 358 359 359 360 359 360 360 360 358 358 357 357 357 356 357 356 355 354 354 353 354 357 354 349 348 350 350 349 352 353 351 354 354 354 357 355 355 354 353 356 358 359 361
353 353 353 354 355 356 356 357 357 356 355 355 354 355 356 356 358 356 356 356 356 358 358 358 358 359 358 359 358 358 358 358 358 358 358 358 358 358 359 359 359 359 358 359 359 360 359 359 359 359 358 357 357 357 357 355 356 356 355 356 355 354 354 355 355 353 350 349 353 350 353 349 355 353 353 355 354 354 352 354 356 359 358 358 359
352 352 353 353 353 354 355 356 356 356 356 355 355 355 355 356 357 357 356 355 356 356 358 358 358 358 357 358 358 358 358 358 359 358 358 359 358 358 359 359 359 359 359 360 361 361 360 359 360 359 358 356 356 355 355 355 354 354 354 355 355 354 355 356 355 353 350 349 351 349 348 350 352 353 354 353 353 354 355 355 356 358 360 358 358
352 352 352 352 352 353 354 356 356 355 356 356 355 355 355 355 355 357 357 356 356 356 356 356 357 357 358 358 359 359 359 359 359 359 358 359 358 359 359 359 358 359 359 359 359 361 361 361 361 360 358 356 356 356 356 354 351 350 351 352 352 351 349 350 354 354 352 352 349 349 351 350 354 355 354 354 351 350 352 355 359 360 358 356 357
352 351 351 351 351 352 353 354 356 356 356 356 356 356 355 355 354 354 357 356 355 354 354 355 357 357 358 358 358 359 359 358 359 359 359 359 359 359 358 358 359 358 359 358 359 360 360 359 360 359 358 357 355 355 355 353 350 351 353 352 351 349 348 349 350 350 350 348 349 348 348 349 349 352 356 354 353 351 349 352 355 358 358 356 356
351 351 351 351 351 351 352 354 355 356 356 357 356 355 355 355 355 355 356 356 355 354 354 354 355 356 356 357 358 359 359 358 358 359 359 358 358 358 358 358 358 359 359 360 360 360 360 359 358 359 358 358 357 356 355 354 354 351 352 351 351 350 349 350 350 349 349 349 350 348 349 350 352 351 351 353 354 353 353 351 350 352 354 356 356
350 350 350 350 350 351 352 353 354 355 357 356 355 354 353 354 354 354 355 355 354 355 355 354 355 355 356 357 358 358 357 357 358 358 358 358 358 357 358 358 358 358 358 358 359 359 359 358 358 358 359 362 364 363 361 358 355 354 355 353 352 351 350 350 351 351 351 349 349 348 347 348 349 349 349 350 350 349 351 352 351 353 353 353 355
350 349 349 349 351 351 351 352 352 353 354 354 354 354 353 353 352 352 352 354 354 356 355 355 354 354 354 355 356 356 357 357 360 362 362 360 358 357 357 359 358 358 358 358 357 357 356 356 355 361 363 366 367 372 369 369 370 363 361 355 354 353 352 350 351 351 350 347 346 347 345 346 348 349 348 349 351 352 353 353 350 351 351 350 353
350 349 349 350 350 351 350 351 351 351 352 353 353 353 353 353 353 352 352 352 353 354 356 353 352 353 353 354 354 354 355 356 359 345 346 356 362 358 358 358 359 358 357 358 357 357 357 356 355 356 367 372 367 366 366 365 366 368 366 365 358 356 352 350 350 348 349 348 348 346 346 348 349 349 349 350 351 352 352 351 350 349 346 343 342
349 349 350 350 350 350 350 350 350 350 350 351 352 352 352 351 351 351 351 350 352 353 353 352 352 352 353 353 353 354 355 353 341 342 346 346 359 362 358 357 357 357 357 357 357 356 356 354 353 362 362 358 356 355 359 364 362 362 363 363 363 361 356 354 352 349 348 348 347 347 347 348 349 350 351 351 352 351 352 350 349 347 345 344 344
347 347 347 348 348 348 349 349 349 348 349 349 350 350 350 349 348 348 348 350 350 351 351 351 351 352 352 352 353 354 355 346 340 340 339 340 342 360 360 360 358 357 357 357 357 357 356 355 356 357 356 365 361 353 355 359 360 359 358 359 363 357 342 341 344 352 350 349 347 347 348 350 351 353 353 353 352 349 349 349 349 348 347 346 346
344 342 343 344 345 346 346 347 347 347 348 349 349 350 349 348 348 348 349 350 349 348 349 350 350 351 350 351 352 353 354 339 332 332 332 332 334 342 353 356 357 358 358 356 355 355 355 354 356 354 352 354 353 352 355 355 356 357 357 357 358 358 352 347 346 346 351 350 350 350 353 352 352 353 354 354 350 349 349 348 349 347 347 346 349
341 341 341 340 341 343 346 346 346 346 346 348 348 349 349 349 348 348 349 350 349 349 349 349 349 351 350 350 350 349 341 324 325 327 326 327 330 341 347 349 351 353 354 355 356 355 354 354 355 353 351 349 350 352 351 353 354 354 356 355 355 353 351 350 351 353 353 352 353 353 352 352 352 352 352 352 351 351 350 349 349 349 348 350 350
338 339 340 340 340 341 340 342 345 345 345 347 348 348 348 347 347 346 348 347 349 350 349 350 348 347 346 346 347 341 329 319 320 320 321 323 330 344 348 349 349 350 351 352 353 355 355 355 354 351 349 348 348 333 342 349 352 352 353 353 352 350 349 347 334 340 348 348 350 349 348 343 337 343 343 344 348 350 350 351 349 347 345 342 340
337 340 342 341 342 342 342 342 341 342 341 340 340 341 341 343 344 346 345 347 348 347 345 341 340 340 341 338 338 333 332 322 316 316 317 317 334 347 349 350 350 349 352 354 355 355 353 351 349 347 344 343 330 323 326 344 348 349 349 349 349 348 343 343 340 336 331 328 327 328 327 327 327 326 326 329 337 343 344 339 337 341 339 335 336
338 339 340 342 343 342 341 341 341 340 339 340 340 341 342 342 342 346 345 347 347 345 343 339 338 339 337 335 335 334 331 324 315 314 315 317 331 343 348 351 352 352 353 353 353 352 352 354 348 344 342 337 323 322 325 343 347 346 348 348 347 346 342 341 345 342 333 330 329 329 329 329 330 331 330 329 331 338 340 333 335 339 332 333 330
338 338 340 342 344 343 342 341 341 340 340 340 341 341 341 341 342 341 340 343 344 343 342 339 336 337 339 340 339 333 332 329 315 313 313 316 331 340 343 348 349 350 351 350 348 349 350 350 346 339 336 326 316 320 322 341 343 344 345 346 344 342 339 339 342 338 335 334 335 335 335 335 336 335 336 336 335 336 334 334 337 335 333 334 332
337 339 341 342 344 343 343 343 341 341 340 340 342 341 342 342 341 341 341 342 342 343 342 339 337 336 336 334 334 333 330 326 320 312 312 315 323 340 340 343 346 349 351 349 346 345 343 339 333 322 319 317 314 312 314 317 337 342 344 343 340 337 336 337 341 334 332 331 331 332 331 332 332 332 331 332 333 333 330 331 332 334 333 333 332
337 338 339 341 342 342 342 342 342 341 341 341 342 342 342 340 340 340 340 342 341 340 339 337 335 334 334 335 335 333 330 325 320 312 311 313 318 332 339 338 340 342 343 345 342 340 339 336 331 323 316 314 312 310 310 314 322 337 338 338 338 336 334 338 337 335 332 332 331 331 330 330 330 330 330 331 331 331 330 331 332 334 333 331 329
333 334 335 336 337 338 340 341 342 342 342 341 339 340 340 341 341 341 341 339 337 336 335 334 334 334 333 332 331 330 332 329 324 315 312 311 312 319 329 331 333 341 339 339 335 330 329 331 331 324 315 313 312 309 310 313 317 332 332 317 316 323 337 336 330 328 327 327 327 327 328 328 327 328 328 328 328 330 329 329 331 334 334 331 327
330 331 332 332 334 335 336 339 341 342 342 341 339 337 338 339 340 341 338 336 334 331 331 332 331 328 328 328 327 327 328 328 325 322 315 311 311 312 314 320 321 329 329 328 326 327 329 331 332 324 313 309 307 308 310 313 326 325 311 313 316 320 333 329 329 325 325 325 325 324 324 325 325 325 326 326 326 329 328 329 330 329 328 327 326
328 329 331 330 330 332 335 335 336 336 337 336 336 334 335 338 339 339 337 333 330 330 331 332 329 327 326 325 325 326 326 326 324 323 321 314 311 311 311 311 314 322 324 323 324 323 324 327 326 313 311 309 306 309 312 319 321 311 309 314 320 330 330 328 326 325 324 322 322 322 322 324 324 324 324 325 326 328 328 328 329 328 326 323 322
327 326 326 328 330 331 332 333 333 333 333 334 334 335 335 336 334 333 331 330 330 329 330 331 329 327 325 323 322 321 321 321 323 325 323 321 314 313 315 315 314 315 323 323 325 325 318 312 311 312 313 308 309 314 320 319 315 314 312 321 330 325 326 324 323 322 320 320 321 320 321 322 323 324 325 325 327 328 328 326 326 325 324 323 321
330 329 329 330 330 330 327 326 326 327 328 329 330 331 334 334 332 331 331 331 331 331 331 330 328 326 323 321 319 319 319 319 318 320 323 323 321 317 315 319 323 322 322 321 320 319 316 313 312 311 313 316 327 330 327 325 320 320 322 326 324 323 323 322 323 321 321 321 321 319 320 322 322 324 325 325 323 322 324 322 322 321 321 320 319
328 327 328 329 330 329 327 325 322 321 321 322 322 326 328 330 333 332 332 331 331 333 331 329 327 325 321 320 320 319 319 318 318 318 318 319 319 319 319 319 320 320 321 321 321 323 324 326 323 319 320 323 325 326 326 326 326 325 324 323 323 322 322 322 322 323 322 321 320 319 320 321 323 323 319 319 319 320 322 321 318 317 319 317 317
322 323 325 329 330 329 329 328 321 317 316 315 314 316 318 322 322 321 322 325 330 330 330 330 327 324 319 319 317 317 317 317 316 314 312 313 313 316 317 316 315 314 315 314 315 323 326 325 322 325 324 322 321 321 321 323 323 322 321 322 324 327 327 326 324 321 320 320 319 320 321 322 320 318 318 317 316 316 318 318 317 316 315 316 313
327 323 323 324 326 326 320 320 318 315 314 312 310 308 310 313 317 318 317 315 318 325 332 331 327 322 320 318 318 316 317 317 314 306 309 303 307 311 313 311 309 311 314 307 317 325 325 323 322 321 320 320 319 318 318 318 319 319 318 318 318 318 319 319 318 318 319 319 319 319 318 318 317 317 315 314 314 314 316 315 315 315 315 314 310
324 324 324 323 322 322 320 318 318 317 315 314 313 310 307 301 305 313 313 312 306 304 314 326 323 320 318 315 315 317 317 315 304 296 294 294 295 295 296 295 296 302 304 302 318 321 321 320 320 319 318 318 317 317 316 317 317 317 318 319 318 317 317 317 317 317 318 317 316 316 315 316 314 314 314 312 312 311 312 312 312 313 312 310 309
323 323 327 326 324 322 319 316 316 315 315 316 317 316 314 311 298 298 305 305 300 296 297 300 306 312 319 314 309 304 304 299 294 294 294 293 293 292 292 292 294 294 297 315 320 320 321 320 319 320 319 319 318 317 318 318 318 317 317 317 318 318 317 317 316 317 316 316 315 314 314 313 312 312 312 311 310 310 310 310 311 310 308 309 308
321 323 325 326 325 323 320 320 319 317 315 316 316 317 316 315 314 302 297 300 299 295 295 295 296 300 305 311 315 310 301 295 293 293 293 294 293 293 292 294 294 295 296 305 321 319 320 319 318 318 318 318 318 318 317 317 317 317 317 316 315 316 315 313 313 313 313 313 312 312 311 311 311 311 310 309 308 307 307 306 306 306 307 307 307
320 321 327 330 329 327 324 322 320 318 318 318 317 317 315 316 315 314 311 298 295 295 294 294 294 294 295 295 298 301 298 294 293 293 292 293 293 294 296 299 298 300 308 317 317 317 317 317 316 317 317 316 316 316 317 316 316 316 315 315 313 312 311 311 313 312 311 310 310 309 309 309 308 308 307 307 305 303 304 304 305 305 305 305 305
319 322 323 327 325 325 324 322 321 320 318 317 317 318 319 317 316 317 315 316 316 307 300 295 295 296 293 293 294 294 293 294 294 294 293 294 294 297 298 307 300 301 308 317 316 316 316 316 316 316 317 317 317 317 316 316 316 314 313 311 310 309 309 310 310 309 308 308 307 307 307 306 306 305 304 304 304 303 302 302 303 303 302 303 303
319 329 331 329 321 322 321 322 322 320 320 323 324 323 321 320 320 319 318 317 316 315 315 315 302 294 302 299 293 292 293 293 293 293 294 294 295 295 302 316 314 314 314 315 315 314 313 312 312 313 312 312 313 313 312 313 313 313 311 309 308 308 308 308 307 307 306 306 306 306 305 305 304 303 303 302 302 301 301 301 301 302 302 302 303
318 319 319 323 321 320 320 320 321 324 324 323 324 325 324 323 322 320 319 320 319 317 316 313 313 306 297 292 291 292 292 293 293 293 294 295 296 296 314 312 312 312 312 313 313 313 313 311 311 310 310 310 310 310 310 310 309 309 309 309 308 307 307 306 306 305 305 305 304 304 303 303 302 302 302 301 300 300 300 300 300 300 301 301 302
316 317 318 319 319 318 319 319 320 322 325 325 325 328 327 326 324 321 321 321 320 319 316 314 314 315 313 314 302 294 292 292 294 295 299 301 304 313 314 313 312 312 312 311 311 310 308 308 309 309 310 309 308 309 309 310 310 309 308 307 307 306 306 305 305 305 303 302 302 302 302 301 301 301 300 299 299 299 299 300 299 299 299 299 299
316 316 317 319 319 319 318 320 324 325 324 323 322 324 326 326 327 324 322 322 320 318 315 314 316 314 314 315 316 316 309 299 300 304 305 305 311 315 314 314 313 311 309 309 309 308 307 307 307 307 308 308 308 308 308 308 308 308 308 308 308 308 308 306 306 304 303 302 301 301 301 301 301 301 301 299 299 298 298 298 298 297 298 298 298
316 320 322 322 320 317 319 323 321 320 322 319 321 324 323 320 323 324 323 323 323 319 316 315 316 315 315 316 316 319 316 316 314 313 314 313 313 313 313 312 312 311 310 309 309 308 306 306 307 307 307 307 307 306 306 305 305 304 304 303 303 303 303 303 302 303 302 301 300 300 300 299 299 300 300 299 299 298 297 297 297 297 296 296 296
320 317 320 324 323 322 323 324 323 322 324 320 318 321 321 323 321 320 320 323 322 320 318 316 316 317 317 317 317 318 316 315 314 313 312 312 311 311 311 310 310 309 308 307 306 306 305 305 306 306 306 307 307 306 306 306 305 304 304 303 302 302 302 302 301 301 301 301 301 300 300 299 299 298 299 299 299 298 297 297 297 297 296 296 297
317 316 323 321 320 322 324 324 320 319 320 323 320 320 319 321 321 319 318 319 321 322 320 318 317 317 317 314 309 310 318 315 314 314 313 312 311 310 309 309 309 308 307 307 306 305 305 305 305 305 305 305 306 306 306 306 306 305 305 305 304 302 301 301 301 300 300 300 299 299 299 298 298 297 296 298 298 297 297 297 296 296 296 297 297
315 314 318 319 318 320 320 323 321 323 322 322 320 318 321 322 320 317 319 320 320 319 317 314 312 312 308 305 301 301 312 314 313 313 312 311 310 309 309 309 308 308 307 306 306 305 305 305 305 306 306 306 305 305 305 304 304 303 303 302 302 301 300 299 300 299 299 298 298 297 296 297 297 296 296 297 296 296 295 295 295 296 296 296 297
318 317 317 320 318 317 318 319 320 317 317 317 318 321 322 321 319 319 319 319 319 317 314 312 310 310 309 304 304 305 311 312 312 310 309 308 308 308 307 306 306 306 306 307 307 307 306 306 305 306 306 306 306 307 305 304 303 302 302 301 300 299 299 299 298 298 298 298 297 297 296 296 296 294 295 296 296 295 295 295 295 295 296 296 297
320 321 321 320 319 319 319 317 316 317 316 318 320 320 321 319 318 318 318 318 318 317 313 311 310 309 309 306 306 308 310 309 308 308 308 307 306 305 304 304 304 304 305 305 305 305 305 305 304 304 304 304 304 305 305 304 304 303 302 301 300 299 298 298 297 298 298 297 296 296 296 296 296 295 295 296 296 295 295 295 295 295 296 296 296
318 319 318 317 318 317 316 317 316 316 317 317 316 316 318 317 315 315 316 316 317 315 312 311 310 310 308 307 308 308 307 307 308 307 306 305 305 304 303 303 304 304 304 304 304 304 304 304 304 304 304 303 303 303 304 304 304 304 304 303 301 300 298 298 298 298 297 297 296 296 296 295 295 295 295 295 295 295 294 294 295 295 295 296 296
317 318 318 318 316 317 317 315 317 315 315 315 315 316 316 315 313 312 313 314 315 314 312 311 310 309 308 307 308 308 307 307 306 306 305 304 304 303 303 303 303 303 304 304 304 304 304 304 304 304 303 303 302 302 302 302 303 303 303 303 302 300 300 300 299 298 298 297 296 295 295 295 295 295 295 294 294 294 294 295 295 295 295 295 295
314 316 317 317 316 316 316 316 315 314 314 313 315 315 314 314 312 313 314 313 314 313 311 309 309 308 307 308 307 307 307 306 306 305 304 303 303 302 302 302 302 303 303 303 303 304 304 304 303 303 303 302 302 301 301 301 301 301 301 300 300 299 299 299 299 299 298 297 297 295 295 295 294 294 294 295 294 294 294 294 294 295 295 295 295
312 314 314 315 314 314 314 314 313 316 315 314 313 314 314 314 313 313 313 314 312 311 309 309 307 307 308 307 307 307 307 306 306 305 304 303 302 302 302 302 302 302 302 303 303 304 304 303 303 303 304 303 302 301 300 299 299 300 299 299 299 299 298 297 299 298 298 297 296 296 295 294 294 294 294 294 293 293 293 293 294 295 295 296 296
310 312 313 313 313 313 313 313 313 313 312 312 313 314 313 312 311 311 311 310 310 310 310 308 307 306 306 307 307 307 307 306 304 303 302 301 301 301 301 301 302 300 301 302 301 302 302 303 303 303 304 303 303 301 300 299 298 299 299 298 298 296 292 294 296 297 294 297 296 295 295 295 294 294 294 294 293 293 293 294 295 295 295 296 296
309 311 312 312 313 312 312 312 310 309 309 309 309 309 310 310 309 310 309 309 309 308 308 308 308 307 307 308 308 307 306 305 304 303 302 302 301 300 300 300 300 300 301 301 300 301 301 302 302 302 302 302 302 301 300 299 299 299 299 298 295 292 290 292 293 293 295 296 295 295 295 295 294 294 294 293 293 293 293 294 295 295 295 295 295
311 311 311 312 312 312 312 311 310 309 308 309 308 308 308 308 308 308 308 308 307 307 307 306 306 306 307 307 307 306 305 304 303 302 302 301 301 301 301 300 300 300 300 300 300 300 300 301 301 301 302 303 302 301 300 299 299 298 296 294 292 290 288 290 294 290 291 292 295 295 295 295 294 293 293 293 293 293 294 294 294 294 295 295 294
Wind_Speed
10 9 8 8 8 8 7 7 7 6 6 6 6 7 6 6 6 6 5 6 5 6 6 6 6 5 5 5 5 5 5 5 4 4 4 4 4 4 3 3 4 3 3 4 2 2 3 4 4 4 2 3 3 3 2 2 2 2 1 1 2 2 3 3 3 4 4 2 2 3 2 3 3 2 4 5 5 6 5 2 4 4 4 4 5
9 9 8 8 9 8 7 7 6 6 7 6 7 6 6 6 6 5 6 6 6 6 6 5 5 6 5 6 6 6 6 6 5 4 5 5 4 3 4 4 4 4 3 4 4 3 3 4 5 4 2 3 3 3 2 3 2 3 2 2 3 2 3 3 4 3 4 3 3 2 3 1 4 1 4 5 6 5 6 5 4 4 4 4 5
9 8 8 8 9 8 7 6 7 7 7 6 7 6 6 6 5 6 6 5 5 6 6 6 6 6 6 6 6 6 6 6 5 5 5 5 5 4 4 4 4 5 5 5 5 3 4 4 5 4 2 3 3 3 2 3 2 2 3 1 3 3 2 3 2 3 4 4 2 2 2 2 2 3 3 2 3 3 4 4 4 4 3 5 6
8 8 8 8 8 7 8 7 7 7 7 6 7 6 6 5 5 6 6 5 5 5 6 6 6 6 6 6 6 6 6 5 5 5 6 6 6 6 5 5 5 5 5 5 5 4 4 4 5 4 3 3 4 4 3 2 2 2 3 3 2 3 1 3 4 4 2 3 3 3 2 2 3 2 2 3 3 4 2 3 2 3 4 5 6
9 9 9 9 8 8 7 7 7 7 7 6 7 6 6 6 5 6 5 5 6 5 5 5 5 5 5 6 6 6 6 6 6 6 5 5 6 6 5 5 5 5 5 5 5 5 5 5 6 4 3 4 4 4 3 5 3 3 4 4 3 3 1 2 3 3 4 5 4 2 1 2 2 2 1 4 5 4 2 3 4 3 4 5 6
9 9 8 9 9 9 9 7 8 8 8 7 7 7 6 6 6 5 6 6 6 6 6 5 6 7 7 7 7 7 7 6 7 7 6 6 5 5 5 5 5 5 5 5 6 5 5 6 5 4 4 4 5 5 5 5 4 4 5 5 4 3 3 3 2 3 4 5 3 4 1 2 2 2 1 3 4 4 4 3 3 3 4 6 6
9 8 8 9 9 9 9 8 7 7 7 7 6 6 6 6 6 6 6 6 6 6 6 6 6 6 7 7 7 7 7 6 6 6 6 5 5 5 5 6 5 5 5 6 6 6 6 5 5 5 5 5 5 6 5 5 4 5 6 6 3 3 4 3 3 3 3 3 3 3 3 2 1 3 2 3 2 1 3 5 5 2 3 5 6
8 8 8 8 9 9 9 9 8 8 7 6 6 6 6 6 6 6 5 6 7 7 7 7 6 6 6 7 7 6 6 6 6 6 6 5 5 5 6 6 6 5 6 5 6 6 6 6 6 5 5 5 6 6 5 6 4 5 5 3 3 3 4 3 2 3 3 3 3 3 1 2 2 2 3 2 3 1 2 3 8 8 7 5 5
9 9 9 9 9 9 8 7 7 7 7 7 7 7 7 7 6 6 6 6 6 6 6 6 6 6 7 6 6 5 6 6 5 5 6 6 6 6 6 6 6 6 5 6 5 6 6 6 6 5 5 8 10 9 8 6 4 5 6 3 4 4 3 2 3 3 3 3 4 2 2 2 2 2 3 2 3 4 4 3 6 6 6 6 6
9 9 10 10 9 8 8 7 7 7 7 7 7 7 7 6 6 7 7 7 7 6 6 6 6 7 7 7 6 5 5 5 7 11 9 6 6 5 5 6 6 6 6 5 5 5 6 5 5 9 10 12 11 5 2 1 5 5 5 3 4 3 3 3 3 4 3 4 5 3 3 4 2 1 2 2 3 3 5 6 8 8 8 7 5
8 9 10 9 8 7 6 7 6 7 8 7 7 7 7 6 6 6 6 6 6 6 5 6 6 6 7 6 7 6 5 5 11 12 12 12 7 6 6 6 5 5 5 6 6 6 5 4 4 6 7 3 2 2 1 0 2 1 3 6 5 4 3 3 4 3 3 4 2 2 3 4 3 1 2 3 2 4 5 5 7 8 8 8 8
8 8 6 3 4 5 6 6 6 7 6 7 6 6 5 6 6 6 6 6 6 5 6 7 7 6 6 6 6 6 6 8 11 11 12 12 10 6 5 5 5 5 5 6 5 5 5 4 3 1 1 2 2 1 1 1 2 3 3 3 1 6 5 4 4 2 3 3 4 4 2 3 2 1 2 2 4 5 6 6 6 6 6 7 7
2 1 3 6 6 6 5 5 6 6 6 5 5 4 5 6 6 6 8 7 5 6 7 6 7 6 6 7 7 6 7 8 9 7 6 7 7 7 4 5 5 6 6 6 6 6 5 4 3 2 1 3 2 1 1 1 1 3 5 5 5 6 3 2 1 3 2 3 3 2 2 1 2 1 1 3 3 6 6 5 5 5 4 5 6
7 5 2 3 1 3 5 5 6 6 6 6 6 6 6 7 7 6 6 5 6 6 6 7 6 7 7 8 7 6 5 3 3 1 1 2 3 3 4 5 5 6 6 6 5 6 6 5 5 5 3 3 2 2 2 2 1 1 2 2 2 5 6 7 5 4 1 1 1 1 1 1 3 4 5 4 5 5 5 5 4 4 5 6 6
6 8 7 5 2 6 5 4 7 7 7 7 6 7 7 7 6 6 7 8 8 7 7 6 5 5 5 5 5 4 2 4 3 2 1 2 3 4 4 4 4 5 5 5 6 6 6 5 6 7 6 4 2 3 2 2 2 2 2 2 2 3 3 4 4 3 2 2 2 1 2 3 4 4 5 4 3 3 3 4 4 4 5 4 3
6 7 1 5 7 6 1 10 9 4 5 3 1 2 3 4 5 3 2 1 1 2 2 2 3 1 1 1 3 3 3 5 4 3 3 2 2 3 3 4 4 4 5 5 5 5 5 5 7 6 6 5 2 4 3 1 2 3 3 3 3 3 3 3 3 5 3 3 3 4 4 5 6 6 5 4 4 3 3 1 2 3 4 4 4
7 4 2 3 3 5 6 3 5 4 3 5 5 5 3 5 7 2 2 2 3 2 2 2 2 3 3 3 4 3 2 3 4 4 4 5 2 2 3 3 5 6 5 2 1 2 1 2 2 2 2 2 2 1 2 4 2 3 3 3 3 3 1 2 4 7 10 11 12 11 10 11 11 11 12 12 8 4 2 4 5 5 4 4 4
5 6 5 4 3 3 4 7 6 4 3 4 5 5 5 5 3 4 6 2 5 3 3 3 2 2 3 4 3 4 3 5 8 7 7 7 4 1 3 4 4 3 2 2 2 2 2 6 4 3 2 2 5 5 5 3 3 3 3 3 4 3 1 2 2 6 9 11 11 12 11 10 11 12 13 12 12 8 5 5 4 3 3 3 3
5 4 3 2 4 3 5 6 6 5 5 5 5 4 3 3 2 3 1 6 3 3 4 4 4 4 4 5 7 7 5 6 10 9 8 7 4 2 2 2 3 3 4 3 2 2 3 8 10 7 6 5 7 8 9 5 1 1 2 3 3 3 1 0 3 5 4 5 5 6 7 8 8 7 7 12 12 10 6 4 2 2 2 2 2
5 5 3 3 4 3 3 4 6 5 5 5 3 5 4 3 3 2 2 2 3 3 2 4 5 5 5 5 5 5 6 6 8 11 12 11 8 3 4 3 3 4 3 3 2 3 3 4 7 8 8 7 8 9 8 10 3 1 3 3 4 4 2 1 4 6 6 6 5 6 6 5 6 5 6 6 7 8 6 4 3 2 2 1 2
4 6 5 3 2 2 3 4 5 5 7 5 6 7 6 6 5 5 4 4 2 1 3 4 5 6 8 7 7 6 6 6 9 13 14 14 14 9 4 4 3 4 4 1 1 2 4 4 4 6 7 8 7 8 9 9 8 3 2 2 2 2 2 3 7 8 6 6 6 5 5 5 5 5 5 5 5 5 5 5 5 4 3 3 2
4 6 7 7 6 7 6 5 3 3 4 3 4 5 4 3 3 3 4 4 4 2 4 7 6 6 5 6 6 7 8 10 7 13 15 16 16 15 8 7 7 2 3 5 3 3 3 3 3 3 5 5 6 6 8 8 9 5 1 5 5 1 2 5 6 5 5 5 5 5 5 5 5 5 5 5 5 5 5 5 5 5 5 5 5
7 8 9 9 9 8 7 6 4 3 3 1 1 2 2 3 3 4 6 5 4 4 4 5 6 7 7 5 6 6 5 8 13 12 14 16 16 16 16 12 15 10 6 4 5 3 2 1 2 6 6 7 8 9 9 9 6 5 5 4 6 4 5 5 6 6 6 5 5 5 5 4 4 4 4 4 4 5 5 5 5 6 7 7 8
8 9 8 7 7 6 5 4 4 4 5 4 4 3 1 1 2 3 6 6 5 4 3 4 6 6 6 5 5 4 5 6 11 13 11 14 14 14 14 15 14 8 7 6 6 6 5 4 3 6 5 7 10 10 8 7 4 5 8 3 7 8 6 6 6 6 6 5 6 5 5 4 4 4 4 3 4 3 4 5 5 5 6 6 7
8 8 8 7 6 5 6 6 7 8 8 8 8 6 4 3 4 5 7 6 6 5 4 4 5 5 5 5 4 4 4 5 6 9 13 13 13 12 11 11 10 8 6 4 5 3 4 9 12 5 5 9 9 7 4 5 8 4 9 3 8 6 6 6 5 6 7 6 5 4 4 4 3 3 2 2 2 4 4 4 5 5 4 5 6
7 6 6 6 7 7 8 8 8 9 8 8 7 6 6 6 6 5 5 5 5 5 6 5 5 5 5 4 5 4 4 5 5 4 6 8 8 8 8 8 8 6 4 1 4 11 10 7 11 11 7 6 4 2 3 4 7 7 7 8 5 5 5 6 5 6 5 4 4 4 3 3 3 3 3 4 6 6 5 4 4 5 5 4 4
6 6 6 6 6 6 7 5 5 6 7 6 6 6 6 5 5 5 4 5 5 5 6 5 5 5 5 4 4 4 4 3 3 4 5 5 5 5 4 4 6 4 4 3 4 6 8 6 5 5 4 3 6 7 7 7 6 5 4 6 6 6 5 5 5 5 4 4 4 3 3 3 3 5 6 6 6 6 5 4 4 4 4 3 4
6 6 6 6 5 5 6 8 6 5 6 6 6 6 5 5 5 4 2 1 3 4 4 4 4 5 5 4 4 3 2 3 3 4 3 3 3 3 3 4 4 3 1 3 4 4 3 6 7 7 7 6 4 4 4 5 5 5 5 5 6 7 9 11 9 5 4 3 3 3 3 4 5 5 5 6 6 5 5 5 4 4 4 3 3
6 6 5 5 5 5 5 4 4 5 6 6 6 6 4 3 3 4 4 2 2 1 3 4 4 4 4 4 4 4 2 3 2 2 3 4 3 3 3 2 2 2 2 3 3 1 3 4 5 6 6 6 4 4 4 5 6 5 6 5 5 5 4 3 5 4 3 4 4 4 4 4 5 4 5 5 5 5 4 4 5 3 3 4 4
5 6 5 5 4 4 4 4 4 4 5 5 5 6 9 9 6 3 3 8 8 3 1 3 5 5 5 3 4 1 3 3 5 5 4 3 2 2 2 4 5 5 6 7 1 3 4 4 4 4 5 5 5 4 4 4 4 4 5 5 5 5 5 4 4 4 4 4 4 4 4 4 4 4 4 4 4 4 5 5 4 4 4 4 4
5 4 5 5 4 4 4 5 4 5 5 5 5 6 5 6 10 10 9 9 8 12 13 12 11 7 5 4 6 11 9 8 6 4 2 2 3 4 4 4 4 5 6 2 4 4 4 5 4 4 5 5 5 4 3 4 4 4 5 5 5 5 4 4 3 3 4 4 5 4 4 4 4 3 4 4 3 3 3 4 3 4 4 4 4
5 4 4 4 4 4 4 5 4 4 4 4 4 4 5 6 7 11 12 10 11 13 13 13 12 12 10 8 5 3 4 5 4 4 6 7 8 8 7 8 7 6 7 2 6 5 4 5 4 4 4 5 4 4 4 4 3 3 3 4 4 4 4 4 3 3 4 4 4 4 4 4 4 4 4 4 3 4 4 4 5 5 4 3 4
4 4 3 3 4 4 4 4 4 4 4 4 4 4 4 5 6 5 5 8 11 13 13 12 12 11 11 11 10 8 6 5 6 8 8 8 8 8 6 6 6 4 2 6 6 6 4 5 5 4 4 4 4 4 4 3 3 3 4 4 4 4 4 4 3 5 5 4 4 4 4 4 4 4 4 4 4 4 4 4 4 3 4 3 3
3 2 2 2 3 4 4 4 4 4 3 3 4 4 3 3 4 5 5 4 6 7 10 12 10 11 12 11 9 8 7 7 9 10 10 9 9 9 6 5 11 12 9 6 6 6 4 5 4 4 4 4 3 4 4 4 4 4 4 5 4 4 4 3 4 5 4 4 5 5 5 4 4 4 4 4 4 3 3 4 4 4 4 4 4
4 4 4 4 3 3 3 4 3 3 3 3 3 3 3 3 3 3 3 4 4 4 3 4 7 9 6 5 6 8 8 8 8 8 7 7 7 8 5 5 7 6 7 6 5 5 5 4 4 4 3 4 4 4 4 4 4 4 4 4 4 4 4 4 5 4 4 4 5 5 5 5 5 4 4 4 4 4 4 4 4 4 4 4 4
4 4 3 3 3 3 2 3 3 3 3 3 2 3 3 3 3 3 3 3 3 4 2 2 2 3 7 7 6 6 7 7 7 7 5 4 3 4 4 6 5 5 5 5 5 5 5 5 4 4 4 4 4 4 3 4 4 4 4 4 4 4 4 4 4 4 5 5 5 5 5 5 4 4 3 3 4 4 4 4 4 5 5 5 5
4 4 3 2 2 3 3 3 3 3 3 2 3 3 3 3 3 3 3 3 3 2 2 2 1 1 2 2 3 5 4 4 4 3 5 7 6 5 5 4 4 4 5 4 4 5 5 5 4 4 4 4 4 4 4 4 4 5 5 5 4 4 4 4 4 4 4 4 4 4 4 4 4 4 4 3 3 4 4 4 4 4 4 5 6
3 3 3 3 3 3 4 3 3 3 3 3 3 3 2 2 3 3 3 3 4 3 4 3 3 3 4 2 2 1 2 1 3 5 6 7 6 4 4 4 4 4 4 4 4 4 5 4 4 4 4 4 4 3 4 4 4 4 4 4 4 5 6 5 5 5 4 4 4 4 4 4 3 3 3 3 4 4 5 5 5 5 4 4 4
2 2 2 4 4 3 3 2 2 2 2 2 2 2 2 2 2 3 4 3 4 3 3 3 3 3 3 3 3 3 4 3 3 3 3 4 4 3 4 4 4 5 4 4 4 4 4 4 4 4 4 4 4 3 3 3 3 3 3 3 3 3 3 3 4 3 4 4 4 3 4 4 4 4 4 4 4 4 5 5 5 5 5 5 5
3 2 1 1 2 2 1 1 1 1 1 1 1 2 1 1 1 2 3 4 4 3 4 4 4 4 3 4 4 4 4 4 3 3 3 3 3 3 3 4 4 4 4 4 4 4 4 4 3 3 3 3 4 3 3 3 3 3 2 2 3 3 3 3 3 3 3 3 3 3 3 3 3 3 3 3 4 4 5 5 5 5 5 5 5
2 2 1 1 1 2 1 1 1 1 1 1 1 1 1 1 1 2 2 3 3 3 3 3 3 3 4 5 4 4 4 4 4 3 3 4 4 3 3 3 4 4 4 4 4 3 3 3 3 3 3 3 3 3 2 2 2 2 2 2 3 3 3 3 3 3 3 3 3 3 3 3 3 4 5 4 4 4 4 4 4 4 4 4 5
1 2 2 2 1 0 0 1 2 1 2 2 2 2 2 1 1 3 2 3 3 3 3 2 2 2 1 4 5 5 5 4 4 4 4 4 4 4 3 4 3 4 4 4 4 4 4 3 3 2 2 2 2 2 2 2 2 2 2 2 2 3 3 2 2 3 3 3 3 3 3 4 3 4 4 5 4 4 4 4 4 4 4 5 5
2 2 1 1 0 1 1 2 2 2 2 2 2 2 2 2 2 3 2 2 3 3 3 3 2 2 2 4 7 7 5 4 5 5 4 4 4 4 4 4 4 3 4 4 3 3 4 3 3 2 2 1 1 1 2 2 2 2 2 3 3 3 3 2 2 2 2 2 2 2 2 2 3 3 4 4 4 4 4 4 4 5 5 5 4
1 0 1 1 1 1 1 1 2 2 2 3 2 2 2 3 3 3 4 3 3 3 2 2 3 3 3 4 5 5 4 4 4 5 5 4 4 4 4 3 4 4 3 3 3 3 3 3 3 2 1 1 1 1 1 1 2 2 3 3 3 3 2 2 2 2 2 2 1 1 2 3 4 4 4 5 4 5 4 5 5 5 5 5 5
0 0 1 2 2 2 2 1 2 3 3 3 3 2 1 2 2 3 3 4 3 3 3 3 4 4 4 3 3 4 4 4 5 5 5 4 4 4 4 4 4 4 3 3 2 3 3 3 3 3 2 1 1 1 1 1 1 2 3 3 3 3 3 3 3 3 2 2 1 2 3 3 4 4 5 5 5 5 5 5 5 6 5 5 5
2 3 3 4 4 4 4 4 2 2 3 3 4 4 3 1 1 1 1 2 2 3 4 4 3 4 4 3 3 3 4 4 4 4 5 4 4 4 3 3 3 3 3 3 2 2 2 2 3 2 2 2 1 1 1 1 1 1 1 1 1 3 3 3 3 3 2 1 1 1 2 3 4 5 7 6 5 5 5 6 6 5 5 5 5
1 1 2 2 3 4 4 4 4 4 4 3 3 3 4 3 0 1 2 3 2 2 3 3 2 2 2 2 3 4 4 4 4 4 4 4 4 4 4 3 3 3 2 2 2 2 2 2 2 2 2 2 2 2 1 1 1 1 1 2 3 3 3 3 3 3 2 1 1 1 2 3 4 5 6 6 6 6 6 5 5 5 5 5 5
2 2 2 2 3 4 4 4 4 5 4 3 3 3 3 4 3 3 3 3 4 5 6 6 5 5 5 4 4 4 5 5 5 5 5 5 4 4 4 4 3 3 3 2 2 2 2 2 2 2 2 2 2 2 2 2 2 2 2 2 3 3 4 4 2 2 1 1 1 1 1 3 3 4 5 7 7 6 6 5 5 5 5 5 5
1 2 2 2 3 3 4 4 4 4 4 3 3 3 3 2 2 2 3 4 5 5 6 5 5 5 5 5 4 4 4 4 4 4 4 4 4 4 4 3 3 3 3 3 3 3 2 2 2 2 2 2 2 2 3 2 2 3 3 2 3 5 7 5 2 2 1 1 1 1 2 2 3 5 6 7 7 6 5 5 5 5 5 6 6
2 2 2 2 3 2 2 2 2 2 1 1 2 3 2 2 2 2 3 3 3 3 4 5 4 4 5 4 4 4 4 4 4 4 5 5 5 4 4 4 5 4 3 3 3 3 2 2 2 2 2 2 2 2 3 3 3 3 3 4 6 8 7 5 4 5 4 2 2 1 1 2 3 4 5 6 7 6 6 5 6 6 5 6 6
1 1 2 2 1 1 1 1 1 1 1 2 2 2 2 2 2 2 2 3 3 3 3 3 5 4 5 4 4 5 5 5 4 4 4 5 5 5 4 4 4 4 3 3 3 3 2 2 1 1 2 2 2 2 2 3 3 3 5 7 8 9 7 6 5 6 3 1 1 1 2 2 3 5 6 7 6 5 6 6 6 6 6 6 7
Wind_Direction
184 187 179 189 186 186 184 184 187 186 186 188 193 200 198 194 195 199 175 198 190 195 199 206 203 203 209 214 219 218 217 219 203 197 202 220 231 234 241 227 239 249 248 279 269 259 261 261 270 275 288 301 301 306 305 304 313 292 248 226 242 174 174 167 222 267 289 234 254 269 315 327 311 8 343 338 342 343 347 355 339 350 352 349 339
188 186 184 185 192 191 189 186 186 181 187 188 197 197 199 201 195 179 194 200 191 200 204 208 208 204 207 212 215 219 218 217 206 192 200 216 231 219 231 230 234 249 264 265 272 260 252 260 266 265 254 267 281 285 293 302 304 302 276 241 259 231 195 189 212 223 269 310 287 283 283 162 312 272 1 339 334 334 335 339 343 350 347 342 337
190 184 184 186 193 192 184 183 180 184 189 190 199 197 198 201 188 193 202 201 197 203 204 207 210 208 213 216 210 213 212 210 204 195 205 209 220 226 229 222 224 238 239 247 257 264 268 255 266 273 277 292 280 278 280 281 281 278 286 252 262 257 207 222 189 238 255 273 257 293 269 300 268 297 330 306 288 294 305 328 338 337 346 337 334
184 183 185 193 190 183 186 183 182 185 191 192 198 200 196 196 191 201 207 204 204 207 206 207 204 209 214 217 212 214 209 210 202 203 208 207 214 224 223 224 227 232 236 245 251 248 252 264 264 267 279 273 278 285 283 275 276 269 275 269 245 268 198 191 216 235 249 263 270 237 279 308 273 257 278 287 317 329 335 298 297 332 337 339 331
183 186 188 190 191 192 190 182 184 189 195 190 199 198 197 195 192 202 201 208 210 204 206 204 204 201 212 213 214 211 213 208 205 210 214 211 215 223 226 225 228 232 237 240 246 245 244 242 257 257 238 255 268 266 267 275 272 270 267 261 247 242 217 205 214 206 218 244 277 265 281 265 255 282 351 349 333 331 332 339 329 329 336 336 327
187 185 187 189 193 197 196 190 192 193 197 198 198 197 194 195 195 201 199 208 208 206 204 199 199 203 209 212 211 215 212 210 210 214 215 212 214 222 226 228 231 231 235 238 243 243 247 248 250 247 242 247 264 268 262 265 267 265 261 255 240 227 235 232 210 204 215 249 234 296 296 310 326 309 328 342 330 324 330 329 318 338 336 334 330
184 187 189 193 194 200 198 198 195 197 198 202 202 199 200 198 197 200 197 207 206 207 207 204 207 205 210 209 211 209 212 210 211 214 218 218 216 219 229 229 231 232 232 238 241 242 243 247 247 240 239 238 254 263 275 270 257 262 253 262 255 229 240 231 202 203 215 242 254 227 274 273 264 312 321 322 289 276 320 330 330 333 332 333 319
183 188 189 195 199 201 203 201 198 198 198 200 203 204 204 204 204 204 197 203 209 208 207 206 208 206 211 210 214 210 209 210 208 210 213 215 215 222 225 231 232 231 238 238 241 244 244 246 247 241 238 238 235 253 239 261 252 263 254 243 247 232 247 228 205 205 208 222 245 270 232 306 309 275 280 305 345 339 17 348 328 329 334 330 308
183 186 189 198 204 201 199 201 199 195 195 194 201 207 207 206 204 203 204 209 209 212 209 206 204 207 215 214 215 210 209 214 208 204 210 212 210 221 222 226 228 230 236 241 241 243 245 247 249 249 244 251 245 246 248 229 225 250 262 200 232 225 239 228 215 206 221 232 259 231 265 269 259 304 330 343 353 322 320 327 312 315 321 322 318
187 188 193 200 201 196 194 195 195 194 195 198 203 205 209 208 205 205 210 211 215 213 214 210 208 209 211 216 214 212 214 214 219 218 211 210 206 217 220 223 225 227 233 245 254 248 247 248 254 257 259 261 262 242 158 227 236 228 254 206 224 220 220 219 211 210 223 238 245 255 256 259 266 282 289 274 299 299 323 335 329 330 331 330 313
195 194 201 201 196 190 189 196 192 201 205 205 204 204 209 211 214 218 219 219 219 217 209 208 211 211 214 216 216 218 219 220 222 222 223 222 216 205 214 221 219 223 225 230 246 254 254 247 257 261 259 227 143 107 173 269 26 17 281 236 210 202 202 222 234 211 219 233 249 225 242 265 270 259 268 299 313 327 323 325 325 332 339 339 336
199 200 195 167 188 195 195 189 199 212 212 220 217 214 208 210 219 223 226 225 226 216 215 217 217 213 214 216 219 221 224 229 226 226 224 222 221 212 209 218 221 217 222 227 235 244 254 262 245 211 225 214 171 192 225 96 40 28 33 40 319 232 230 215 232 214 203 232 243 243 255 265 285 268 286 303 327 325 323 325 326 330 333 334 325
38 56 148 168 174 176 178 193 205 209 217 222 224 218 213 216 222 223 228 228 218 218 223 217 222 217 213 217 219 219 224 227 225 227 231 229 228 232 216 218 221 225 221 223 226 230 229 232 224 198 221 212 190 205 178 171 88 69 56 44 50 60 48 52 312 248 205 211 236 249 229 271 274 268 289 332 328 311 316 312 317 326 325 313 325
120 115 63 13 7 143 155 179 196 206 203 204 205 213 213 221 222 221 228 231 226 232 230 224 224 218 215 216 222 221 221 135 141 168 240 271 264 254 248 225 226 227 226 223 228 225 215 211 201 213 208 220 211 213 187 158 161 110 78 64 80 72 73 75 70 57 79 219 190 253 35 202 297 311 322 324 311 300 306 314 332 326 320 319 329
138 145 134 111 50 342 322 203 195 196 193 193 196 208 217 223 221 216 215 219 220 223 224 233 238 241 244 232 226 210 87 80 100 135 190 216 217 226 241 248 240 237 234 227 226 226 212 210 205 204 189 198 194 203 184 174 149 145 122 116 95 74 54 41 31 21 25 38 42 9 3 351 324 324 331 332 322 315 308 312 332 339 318 306 274
31 355 27 185 191 144 321 314 303 243 181 149 92 328 291 251 231 236 223 206 185 165 125 156 184 157 43 256 199 131 57 44 51 42 7 337 251 228 220 240 249 249 247 237 234 232 222 206 200 196 193 185 135 6 323 235 154 161 150 139 136 114 76 45 22 22 40 43 54 58 53 55 58 56 41 29 18 355 355 29 22 355 344 355 1
134 180 209 230 197 164 155 136 315 328 79 112 122 119 89 354 327 300 162 173 172 165 132 112 123 125 117 105 118 108 95 38 49 39 25 15 347 250 247 243 251 250 247 254 245 239 195 194 197 171 117 126 74 35 328 266 181 175 170 153 153 142 80 31 58 62 74 80 81 84 84 79 72 64 55 45 34 7 51 46 21 359 12 360 354
201 195 190 189 201 152 138 142 182 227 272 191 181 160 155 136 121 355 316 204 159 141 130 109 72 77 104 108 127 127 97 45 34 30 35 28 6 314 279 259 254 268 255 234 226 165 187 151 112 92 106 67 27 359 326 269 205 184 178 157 160 154 106 32 95 92 92 81 76 74 70 65 64 62 53 49 43 36 50 56 357 347 33 12 338
184 210 214 152 234 168 152 149 139 141 221 233 197 181 144 116 123 103 83 305 291 143 123 110 96 84 95 105 100 91 82 48 30 23 29 33 37 24 7 313 270 246 231 201 89 110 76 78 70 66 72 58 36 21 6 348 212 125 153 147 164 142 86 334 115 115 93 80 62 68 54 53 54 52 52 52 51 52 55 61 360 35 42 11 338
163 196 175 204 219 172 140 130 124 134 190 205 127 67 64 71 92 133 161 199 277 295 119 120 117 106 86 76 72 83 86 64 43 45 37 30 22 39 38 28 339 271 223 189 158 151 110 96 79 76 79 65 48 33 24 8 5 173 182 176 151 145 151 196 123 116 100 92 82 68 70 58 56 48 39 42 44 46 44 41 39 35 47 46 32
143 138 135 154 131 108 91 94 130 171 216 190 131 136 166 163 161 172 150 145 160 256 54 55 67 67 68 63 64 64 79 80 57 59 55 49 40 40 60 54 36 5 344 36 4 66 55 58 59 63 75 76 62 45 31 17 355 337 59 85 45 93 124 137 113 101 93 90 84 74 63 55 53 47 44 39 40 35 38 34 37 31 31 42 54
54 64 65 53 46 41 49 74 102 165 232 212 167 153 154 157 143 136 116 105 106 113 89 94 95 85 63 59 57 58 69 80 82 64 65 61 56 52 54 28 360 266 217 266 14 31 57 65 83 64 61 74 72 46 37 23 360 321 27 93 100 153 163 89 86 75 70 68 66 67 56 51 51 42 41 36 29 31 35 35 28 42 48 47 49
54 57 57 53 47 46 38 50 74 123 148 165 67 99 128 157 153 126 113 112 106 81 84 102 95 87 79 65 61 54 45 60 66 68 62 62 58 55 50 46 36 37 19 30 26 12 357 46 79 64 32 19 13 26 18 13 27 4 338 158 142 159 100 102 98 91 80 73 69 64 55 47 46 38 32 22 20 22 39 36 39 45 49 49 53
57 59 59 61 64 62 67 68 65 62 58 70 80 73 70 147 143 118 112 108 109 100 69 70 83 88 85 73 57 42 36 54 58 62 65 65 64 63 60 52 48 44 39 28 18 9 343 348 26 12 5 25 23 9 16 10 352 351 305 254 135 114 106 99 90 91 94 80 71 62 53 41 41 38 25 7 16 9 44 48 49 51 56 56 50
55 60 63 65 64 62 57 43 35 38 37 34 35 37 38 46 59 77 103 110 118 118 118 114 109 109 104 91 74 49 34 30 39 55 62 62 54 54 60 70 66 65 61 23 356 4 332 322 327 353 12 351 335 337 359 59 64 351 256 183 102 103 105 96 96 94 81 78 75 71 64 54 53 49 31 24 27 36 47 51 58 53 49 60 65
53 47 41 41 50 58 59 47 41 34 37 37 43 33 47 73 86 87 99 112 125 129 128 120 115 107 94 86 77 56 39 37 38 32 39 59 55 42 34 50 66 59 67 104 302 294 296 283 276 285 293 283 299 64 75 84 115 144 116 87 87 88 87 90 85 86 90 89 84 77 65 58 58 50 48 46 47 33 26 30 28 34 29 29 40
63 54 48 51 53 60 63 53 41 31 26 33 38 40 45 59 84 96 99 115 126 129 126 122 116 109 105 86 79 66 60 51 37 34 34 38 39 34 19 29 30 16 357 351 311 271 262 235 213 201 164 92 65 72 85 94 91 89 83 82 76 72 67 74 84 94 101 98 86 72 59 63 66 56 43 43 46 31 21 34 40 33 22 31 44
67 56 51 58 64 68 78 77 70 54 43 41 35 28 32 38 65 58 36 40 121 128 121 121 120 126 118 106 94 91 81 58 31 20 22 23 25 21 36 29 17 349 322 241 247 257 165 122 114 106 88 74 67 71 65 60 69 66 62 60 67 75 84 88 83 75 74 82 87 76 64 55 64 63 59 54 48 34 21 35 38 39 28 17 38
74 72 74 73 73 83 90 100 101 98 90 67 54 41 18 7 52 73 44 27 329 42 103 116 115 115 117 129 132 110 93 68 47 37 52 44 42 28 35 38 315 278 321 321 304 172 110 85 99 102 104 104 93 74 65 66 57 51 62 61 67 66 61 56 72 68 59 60 61 64 67 69 68 61 65 61 44 33 13 37 32 37 38 42 54
59 57 66 76 75 80 81 77 88 94 98 99 102 78 58 57 33 50 39 13 23 0 66 122 138 136 109 50 12 59 103 108 114 78 62 28 9 339 308 286 277 284 312 298 263 90 92 92 70 88 95 92 88 82 85 82 84 73 62 65 68 69 66 63 70 75 70 67 68 70 66 72 71 59 62 65 54 41 29 29 35 18 34 32 31
49 59 65 71 87 90 93 93 87 89 90 103 104 105 99 67 55 54 64 63 54 54 59 67 72 64 97 113 60 57 80 97 85 73 52 343 335 350 337 318 327 323 319 352 65 65 98 90 71 73 85 89 88 88 91 88 86 86 75 66 58 61 62 65 63 75 78 82 72 73 69 69 71 61 64 59 55 42 39 31 29 32 33 21 19
48 34 67 86 85 84 77 93 94 91 82 75 80 93 96 88 54 36 38 48 57 63 62 61 62 69 75 95 117 85 76 84 71 43 17 9 357 354 349 344 335 330 306 288 87 73 69 89 86 79 86 90 89 87 78 75 65 65 74 69 55 42 48 58 39 61 75 77 78 70 68 66 65 62 60 57 47 43 29 28 23 19 15 14 17
71 39 28 65 78 91 94 91 88 93 97 94 79 76 89 103 100 85 43 55 70 70 64 64 66 64 66 61 62 81 90 62 39 31 19 9 2 2 353 9 26 13 65 74 89 78 75 75 82 75 73 84 84 84 78 71 71 66 63 71 73 57 55 50 44 70 65 67 77 71 65 65 62 63 56 49 42 40 28 23 14 13 7 359 1
74 51 77 67 94 92 95 101 103 101 96 100 114 101 89 87 106 114 108 97 69 63 66 60 65 79 67 67 73 75 69 54 40 31 21 10 2 358 355 31 52 43 59 85 83 87 77 73 66 64 64 67 64 71 71 71 69 75 75 72 72 70 63 47 57 62 68 65 67 69 64 60 56 56 53 49 42 37 31 19 4 2 1 352 340
32 14 72 106 95 103 115 115 121 122 131 134 109 98 104 113 111 106 108 104 107 92 71 40 43 44 64 70 59 61 53 46 40 31 23 5 355 341 328 43 46 29 37 39 57 58 63 59 62 54 51 56 47 51 63 62 71 74 79 83 78 72 65 60 63 60 64 66 65 63 61 60 56 54 48 39 29 23 18 7 0 351 343 336 334
57 52 22 51 81 90 93 109 120 128 143 151 159 138 137 136 134 122 113 107 112 125 111 41 26 44 69 66 61 51 49 35 22 13 9 2 339 327 77 70 67 52 57 40 54 60 64 63 65 62 56 65 61 61 64 73 71 71 63 75 79 75 73 73 71 65 61 64 67 68 67 62 54 50 46 44 34 16 358 357 349 341 334 328 329
91 90 79 58 71 93 99 104 107 113 95 75 94 137 146 153 143 142 139 144 141 143 102 81 84 67 41 80 86 63 55 29 26 45 45 45 49 64 78 78 84 75 64 57 58 65 62 55 55 63 62 71 66 64 69 74 81 88 88 85 90 87 82 79 82 82 80 78 72 69 67 67 55 47 35 28 15 6 350 338 332 325 325 326 321
98 120 132 135 102 101 104 101 84 82 77 74 75 84 112 142 166 162 164 166 174 155 151 183 176 146 170 174 186 177 86 106 103 74 52 49 48 63 70 76 74 79 85 74 72 75 80 68 58 64 65 69 73 67 71 72 69 73 82 84 79 82 94 96 89 87 87 87 83 77 72 64 52 39 27 17 1 349 342 332 325 320 320 321 319
49 102 153 144 131 132 122 119 90 108 88 80 62 68 88 99 135 159 173 185 172 164 169 178 190 188 183 144 161 147 117 78 82 84 80 72 67 73 87 87 87 83 78 75 84 80 78 77 76 76 67 66 71 63 65 70 66 67 67 78 81 86 92 95 97 92 92 89 87 76 67 55 41 28 7 351 342 338 330 322 319 320 322 323 323
309 354 19 143 125 138 153 137 125 103 112 111 90 117 70 67 88 148 157 170 175 169 176 175 201 197 155 158 162 160 150 133 119 115 107 97 88 78 81 96 94 97 104 94 89 90 92 86 80 83 81 76 77 81 80 85 85 91 83 76 89 86 78 78 84 84 80 82 74 66 50 38 24 8 355 349 344 339 329 322 322 319 316 316 314
302 319 348 129 146 148 185 128 106 146 62 80 108 75 134 146 164 155 159 154 165 175 176 186 188 178 169 180 174 163 142 140 139 134 128 124 119 114 110 113 123 118 113 109 106 96 96 99 88 85 83 82 83 91 98 103 105 104 98 101 93 92 89 79 71 72 69 65 61 49 33 15 7 358 353 346 346 335 322 320 315 314 313 311 311
25 1 346 9 6 47 198 215 174 212 161 171 178 206 237 220 176 167 172 158 156 147 139 135 145 148 115 162 157 143 126 125 130 126 120 118 121 120 117 112 109 117 122 122 127 121 114 104 103 103 104 106 108 102 103 108 109 105 105 111 104 102 95 83 71 68 71 69 60 42 23 9 2 353 337 331 331 327 323 320 316 315 313 315 314
162 164 156 142 127 10 354 347 7 347 322 299 262 253 238 225 219 204 198 187 160 154 151 149 148 137 125 123 140 135 121 129 127 125 123 125 121 118 118 116 115 115 118 119 121 125 125 127 125 118 109 107 106 130 139 135 129 120 108 101 103 103 103 101 96 87 77 78 65 40 14 349 349 344 327 324 320 316 312 315 314 317 316 314 315
193 116 144 150 177 181 197 183 279 271 280 265 272 244 233 202 198 197 199 194 180 170 154 146 144 132 115 114 122 120 122 121 121 127 130 131 129 124 122 121 122 118 120 127 133 138 134 126 121 111 87 84 83 90 101 112 128 131 128 123 127 141 132 114 99 88 86 83 73 41 359 4 359 344 333 327 321 318 314 319 322 321 320 318 318
68 86 342 329 324 302 279 241 256 268 278 286 277 263 256 191 192 211 196 182 183 166 158 151 148 140 131 135 139 131 134 134 134 137 138 136 129 126 128 130 131 129 126 131 137 130 122 129 133 138 133 111 79 103 110 118 133 137 145 154 168 157 142 128 115 106 109 115 73 21 12 4 354 345 337 329 325 320 319 321 321 320 316 316 317
319 333 334 336 328 327 314 317 312 294 287 276 281 282 283 46 105 123 202 215 181 164 159 151 139 142 147 141 136 123 125 123 123 128 129 127 125 127 126 130 127 135 138 137 140 150 147 148 152 151 156 152 134 117 137 135 150 165 169 171 128 126 124 123 128 144 160 164 92 46 8 359 350 347 346 338 329 325 320 315 317 313 312 309 311
18 16 331 329 311 299 297 305 333 319 304 291 276 282 290 293 309 122 144 175 167 115 97 84 86 95 98 102 115 125 131 134 135 130 122 122 125 132 136 135 133 133 137 145 156 163 165 164 163 166 162 164 161 160 151 144 112 87 87 121 128 129 136 152 168 176 174 168 106 42 3 348 339 335 335 337 336 331 319 315 312 312 311 307 308
304 313 298 293 285 286 288 294 290 289 280 258 253 243 241 235 223 197 169 139 116 118 127 134 136 142 137 139 150 143 138 136 136 137 140 143 150 148 144 143 148 149 147 153 173 177 178 173 172 169 166 167 176 176 162 157 142 143 139 163 157 163 162 169 168 180 147 125 179 251 301 319 321 324 328 336 334 330 320 316 317 313 307 309 311
236 240 249 255 255 264 268 278 269 266 262 255 245 243 242 238 208 169 135 131 139 148 153 151 149 157 159 160 157 150 138 133 125 125 126 128 124 128 139 152 149 146 164 164 174 189 188 185 179 182 181 183 184 179 171 177 179 180 172 175 185 188 186 178 156 151 167 203 201 235 259 284 314 322 323 326 326 325 316 308 307 307 306 307 313
210 219 225 238 249 260 257 235 229 227 231 223 222 232 218 145 167 153 141 133 139 140 131 135 142 152 151 134 130 121 120 118 126 136 145 155 157 156 157 163 163 173 172 174 183 197 203 203 196 193 194 199 189 188 189 192 192 194 184 190 190 198 197 179 176 174 184 206 201 238 275 306 310 313 319 326 322 321 314 310 311 310 312 315 317
222 217 218 223 226 215 188 173 170 178 165 159 173 182 174 177 184 163 143 147 149 138 134 133 132 136 130 133 136 143 148 152 154 157 159 160 161 164 167 167 171 173 177 191 197 199 203 209 222 209 211 203 202 197 206 199 194 196 196 194 204 210 192 184 204 202 176 61 262 267 277 295 310 318 329 337 325 315 316 315 309 310 313 316 315